Wind_Speed
18 19 20 20 21 21 22 22 22 22 21 20 20 19 20 20 21 21 22 23 24 26 28 29 30 32 33 33 34 34 34 34 34 32 32 31 31 30 29 29 28 27 26
18 19 20 20 20 21 22 22 22 21 21 20 19 19 19 20 20 19 20 20 21 23 25 27 28 30 31 32 32 34 34 34 33 33 32 32 32 31 31 30 30 30 28
18 19 20 20 20 21 22 22 22 22 21 20 20 20 20 19 19 18 18 18 19 20 22 23 25 27 29 30 31 32 33 34 35 34 33 33 34 33 33 32 31 31 30
17 18 18 19 20 21 22 23 22 22 22 21 21 21 20 20 18 17 17 17 17 18 20 21 23 25 27 28 29 31 32 33 34 35 34 34 33 34 33 33 32 32 32
17 17 18 19 20 21 22 23 23 23 23 22 22 22 21 20 19 17 16 15 16 17 18 19 21 22 24 26 27 29 30 31 33 33 34 35 35 34 33 33 33 33 33
16 17 18 19 20 22 23 23 23 23 23 23 23 22 21 21 20 18 16 15 15 15 16 17 18 20 22 24 26 27 29 30 32 33 33 34 35 35 34 33 34 34 34
16 17 18 19 21 22 23 23 23 23 24 24 24 23 22 21 20 18 16 14 13 13 13 14 15 17 19 21 24 26 27 29 30 32 33 34 34 34 34 34 34 35 35
16 17 18 19 21 22 23 24 24 24 24 25 24 24 23 22 21 20 17 14 13 12 11 12 13 15 17 18 20 23 25 26 27 29 31 33 34 34 35 35 35 35 35
15 16 17 19 21 22 24 24 24 25 25 25 25 24 23 23 22 21 18 16 14 13 11 11 11 12 14 15 17 19 22 24 25 27 28 31 33 34 35 36 35 35 34
15 16 17 18 20 22 23 24 24 25 25 25 25 25 24 23 23 22 20 18 16 14 12 11 10 9 10 13 15 16 18 21 23 24 26 28 31 32 33 35 35 35 34
14 16 17 18 20 21 22 23 24 25 26 26 26 25 24 24 23 22 21 19 17 15 13 11 10 9 9 10 12 13 15 17 19 22 24 26 27 30 31 32 33 34 35
14 15 16 18 19 20 22 23 24 25 26 26 26 25 25 24 23 23 22 20 19 17 15 13 11 10 9 9 10 11 13 15 17 19 22 24 26 28 29 31 32 32 34
14 15 16 17 19 20 21 22 23 25 25 26 26 26 25 24 24 24 23 21 20 19 17 15 13 11 10 9 9 10 11 13 15 17 19 21 24 25 27 29 30 30 31
13 15 16 17 19 20 21 22 23 24 25 25 25 25 25 24 24 23 23 23 22 20 18 17 15 14 12 10 9 9 9 10 12 14 15 17 20 22 23 26 27 29 30
13 15 16 17 18 19 20 21 23 23 24 24 25 25 24 24 24 24 24 24 23 21 20 18 17 16 13 11 10 9 8 8 9 11 13 14 17 19 21 23 25 26 27
14 15 16 17 18 19 20 21 22 23 23 24 24 24 24 24 24 24 24 24 24 23 21 20 19 18 16 13 10 9 7 6 7 8 10 12 14 16 18 20 21 23 25
14 15 16 17 18 19 20 21 21 22 22 22 23 23 24 24 24 23 23 24 24 24 23 21 20 19 18 14 11 9 8 7 6 5 7 9 11 14 17 18 19 21 23
15 16 16 17 18 19 20 20 21 21 22 21 21 22 23 23 23 23 23 23 23 23 23 23 21 20 19 16 13 11 9 8 6 4 5 6 8 10 13 15 17 19 20
15 16 17 17 18 19 20 20 20 20 21 21 21 21 22 22 22 22 23 23 23 22 22 22 22 21 20 18 15 12 10 9 8 6 4 5 6 8 10 13 15 17 19
16 17 18 18 19 19 19 20 20 20 20 21 21 21 21 21 21 22 22 22 22 22 21 21 21 21 20 18 16 13 11 10 9 7 5 4 5 7 8 10 12 15 16
18 18 18 19 19 19 19 20 20 20 20 20 21 21 21 21 21 21 21 21 21 21 21 21 20 20 20 18 16 15 12 11 10 9 7 6 6 7 8 9 10 12 13
19 19 19 20 20 20 20 20 20 21 21 21 21 21 21 21 21 21 21 20 20 20 20 20 20 20 19 18 17 16 14 12 11 10 9 7 7 7 7 8 9 10 12
20 20 21 21 21 21 21 21 21 21 21 22 22 22 21 21 21 21 21 20 20 20 19 19 19 19 18 18 17 17 15 13 12 11 10 8 7 7 7 7 8 9 10
21 22 22 22 22 22 22 23 23 23 23 23 23 23 22 22 22 22 21 21 21 20 20 19 18 18 17 17 17 16 16 14 13 12 11 9 8 7 6 6 6 8 9
23 23 23 24 24 24 24 24 24 25 25 25 25 24 24 23 23 23 22 22 21 21 20 20 19 18 17 17 16 16 15 15 14 13 12 11 9 8 7 7 7 8 9
25 25 25 26 26 26 26 26 26 26 26 26 26 25 25 25 25 24 23 23 23 22 22 21 20 20 19 18 17 16 16 15 14 13 13 12 11 9 8 8 8 8 9
Wind_Direction
347 346 345 343 342 342 340 338 335 333 330 326 320 315 309 303 297 292 285 278 271 265 260 256 254 252 250 249 249 249 247 246 247 245 242 239 239 237 235 236 234 231 231
349 348 349 349 349 348 346 345 343 342 340 336 331 324 318 311 304 297 290 283 276 269 262 258 255 252 250 249 250 248 246 245 245 244 242 240 237 236 236 235 233 231 230
351 350 352 353 354 353 353 352 350 349 347 345 340 334 327 321 314 306 297 288 280 274 267 260 256 253 251 249 249 248 246 244 244 242 241 240 239 238 237 236 235 233 231
352 354 356 357 357 358 357 357 356 355 352 349 346 343 338 333 325 316 306 296 286 278 270 263 258 254 251 249 248 247 246 244 243 242 241 241 240 237 235 236 236 234 231
357 359 0 1 2 1 1 1 0 359 358 355 352 349 345 341 335 326 316 305 295 284 275 266 260 256 252 249 248 245 245 244 242 241 241 240 240 238 235 235 235 234 231
4 4 5 6 5 5 4 4 3 2 1 360 357 354 352 349 344 336 326 315 305 294 282 271 263 258 255 251 248 246 245 244 242 240 239 239 239 237 237 237 236 233 231
9 9 10 11 9 8 8 7 7 6 5 3 2 1 -0 357 353 347 339 331 321 307 295 281 268 261 257 254 249 247 246 245 243 242 240 239 238 236 236 237 235 234 232
11 13 13 12 11 10 9 9 9 8 6 5 5 5 5 4 2 359 354 349 341 327 310 295 280 270 263 257 252 249 248 245 244 242 241 239 238 237 236 236 236 236 234
10 11 11 10 10 10 10 10 10 9 8 7 7 6 6 7 7 5 2 358 353 345 332 316 297 281 270 261 255 252 250 247 244 243 241 239 236 236 236 236 236 235 235
9 9 10 9 9 10 10 10 10 10 9 9 8 9 9 9 9 9 7 3 359 355 348 337 320 302 283 269 260 255 252 250 247 244 242 240 237 235 236 237 236 235 235
7 8 8 8 8 9 9 10 11 10 10 10 10 10 10 11 10 11 10 10 7 2 358 350 338 322 301 282 269 260 256 252 247 243 242 240 239 237 236 236 235 236 236
3 5 5 6 7 8 8 9 10 11 11 11 11 12 12 13 13 14 14 13 11 8 3 356 348 337 319 300 282 270 262 255 250 245 242 240 240 239 237 235 234 235 236
0 1 2 2 4 5 6 8 9 10 11 12 13 13 14 14 16 16 16 14 12 9 6 3 359 349 335 318 299 284 273 262 254 249 244 241 241 239 236 235 234 234 235
356 358 359 360 1 2 4 6 7 8 10 11 12 13 15 16 16 16 15 15 13 11 8 6 2 356 347 336 320 304 286 271 259 252 248 244 241 239 237 237 236 235 235
353 355 356 358 359 360 1 3 5 6 8 10 12 13 14 15 15 15 15 15 14 13 12 10 5 2 356 348 337 323 302 287 271 259 252 248 242 239 239 239 237 235 236
348 351 353 354 356 358 359 0 1 3 4 7 9 10 12 13 13 14 15 15 15 14 13 11 9 7 4 359 353 343 330 308 288 269 258 251 245 241 240 239 238 236 235
340 343 345 348 350 352 355 357 358 359 1 3 5 7 8 10 11 12 13 14 15 15 14 12 12 11 10 5 1 356 352 342 318 284 266 261 252 244 240 240 240 238 236
334 337 339 342 344 347 349 351 354 356 358 359 1 3 6 7 8 10 11 11 12 14 15 15 15 15 14 12 8 6 2 358 349 318 280 263 254 244 241 240 240 241 239
328 331 334 337 339 341 343 345 348 351 354 356 357 359 1 3 4 6 7 8 9 10 11 13 14 14 15 16 15 11 8 2 356 341 313 284 268 255 247 244 242 240 238
322 325 327 330 332 334 337 339 342 344 347 350 352 354 356 358 359 1 3 5 6 8 9 9 12 13 13 14 14 12 6 2 358 350 333 306 281 270 260 251 244 242 242
315 318 320 323 326 328 331 333 335 337 340 342 345 347 350 352 353 355 357 359 2 4 6 7 8 9 11 12 12 11 5 358 354 351 342 322 298 283 270 259 249 243 242
310 313 314 317 320 322 324 326 328 330 332 334 337 339 341 344 347 349 350 351 353 356 359 1 3 4 5 6 6 6 4 0 356 350 344 332 312 298 285 267 255 250 245
306 308 310 313 314 316 318 319 321 322 324 326 327 329 332 334 337 340 342 344 346 347 349 351 354 357 359 1 1 1 360 359 356 352 348 339 325 310 296 278 261 253 249
303 305 307 309 310 312 314 315 315 316 317 318 320 321 323 325 327 329 331 334 337 340 341 342 344 346 348 350 353 355 356 354 351 349 346 339 330 321 307 288 274 264 258
300 302 304 305 307 308 310 311 312 312 313 314 315 315 316 317 319 321 322 324 326 329 332 334 335 336 338 339 340 343 345 345 344 343 341 337 329 322 310 297 283 274 266
297 299 301 302 304 305 307 308 308 309 310 310 311 312 312 313 313 314 315 316 317 319 321 323 325 325 326 327 328 329 330 332 333 333 333 329 323 317 309 300 288 278 271
Height
5845 5842 5838 5834 5831 5826 5822 5818 5814 5810 5806 5802 5799 5796 5794 5791 5789 5788 5786 5786 5786 5786 5788 5790 5793 5795 5799 5802 5806 5810 5813 5817 5820 5824 5828 5832 5835 5839 5843 5847 5850 5854 5856
5845 5841 5837 5833 5829 5825 5821 5816 5812 5808 5804 5800 5796 5793 5790 5787 5785 5782 5781 5780 5779 5780 5781 5783 5785 5787 5790 5794 5798 5801 5805 5809 5812 5817 5820 5825 5829 5832 5836 5840 5844 5848 5851
5845 5841 5836 5833 5829 5824 5820 5815 5810 5806 5802 5798 5794 5790 5786 5783 5780 5778 5776 5774 5774 5774 5774 5776 5778 5780 5783 5786 5789 5793 5797 5801 5805 5808 5813 5818 5822 5825 5829 5833 5837 5841 5845
5844 5841 5837 5833 5828 5824 5819 5814 5810 5805 5800 5796 5792 5787 5783 5780 5776 5773 5771 5770 5769 5768 5769 5770 5771 5773 5776 5778 5781 5785 5788 5792 5796 5800 5805 5810 5814 5818 5822 5827 5830 5834 5838
5844 5840 5837 5833 5828 5824 5819 5814 5809 5804 5800 5795 5790 5786 5781 5777 5773 5770 5767 5765 5764 5763 5763 5764 5765 5767 5769 5771 5774 5777 5780 5783 5788 5792 5797 5801 5806 5810 5814 5819 5823 5827 5831
5844 5841 5837 5833 5829 5824 5819 5814 5809 5804 5799 5794 5789 5784 5780 5775 5771 5767 5764 5762 5760 5759 5758 5758 5759 5761 5762 5765 5767 5770 5773 5776 5780 5784 5788 5793 5797 5802 5806 5811 5815 5819 5824
5845 5841 5837 5833 5829 5824 5820 5815 5810 5805 5799 5794 5789 5784 5779 5774 5769 5764 5761 5758 5756 5755 5754 5753 5754 5755 5757 5758 5760 5763 5766 5769 5772 5776 5781 5785 5789 5793 5798 5803 5807 5812 5816
5845 5842 5838 5834 5830 5825 5820 5815 5810 5805 5800 5794 5789 5784 5778 5773 5768 5764 5760 5757 5754 5752 5751 5750 5750 5751 5752 5753 5755 5757 5759 5762 5765 5769 5773 5777 5781 5786 5790 5795 5800 5804 5808
5846 5842 5839 5835 5831 5826 5821 5816 5811 5806 5800 5795 5789 5784 5779 5774 5768 5764 5759 5756 5753 5751 5749 5748 5747 5746 5747 5748 5749 5751 5753 5756 5759 5762 5765 5769 5773 5778 5782 5787 5792 5797 5801
5846 5843 5839 5836 5831 5827 5822 5817 5812 5807 5801 5796 5790 5785 5779 5774 5769 5764 5760 5756 5753 5750 5748 5746 5745 5744 5744 5744 5745 5746 5748 5750 5753 5755 5759 5762 5766 5770 5774 5779 5783 5788 5793
5847 5844 5840 5836 5832 5828 5823 5818 5813 5808 5802 5797 5791 5785 5780 5775 5770 5765 5761 5757 5754 5751 5748 5745 5744 5742 5741 5741 5741 5742 5743 5745 5747 5749 5753 5756 5759 5763 5767 5771 5776 5780 5785
5847 5844 5840 5837 5833 5829 5824 5819 5814 5809 5803 5798 5792 5787 5781 5776 5772 5767 5762 5758 5755 5751 5748 5745 5743 5741 5739 5738 5738 5738 5739 5740 5742 5744 5747 5750 5753 5756 5760 5764 5769 5773 5778
5847 5844 5841 5837 5833 5829 5825 5820 5815 5810 5805 5799 5794 5788 5783 5778 5773 5769 5764 5760 5756 5752 5748 5745 5742 5740 5738 5737 5736 5735 5735 5736 5737 5739 5741 5744 5747 5750 5753 5758 5762 5766 5771
5847 5844 5841 5837 5833 5829 5825 5821 5816 5811 5806 5801 5795 5790 5785 5780 5775 5771 5766 5761 5757 5752 5749 5745 5742 5740 5737 5735 5734 5733 5732 5733 5733 5735 5737 5739 5741 5744 5747 5751 5755 5760 5764
5847 5844 5841 5837 5834 5830 5825 5821 5817 5812 5807 5802 5797 5792 5787 5782 5777 5772 5768 5763 5758 5754 5749 5746 5742 5739 5736 5734 5732 5731 5730 5730 5730 5731 5733 5735 5737 5739 5742 5746 5749 5753 5757
5846 5843 5840 5837 5833 5829 5825 5821 5817 5812 5808 5803 5799 5794 5789 5784 5779 5774 5770 5765 5760 5755 5751 5747 5743 5740 5736 5733 5731 5730 5729 5728 5728 5729 5730 5731 5733 5735 5738 5741 5744 5748 5751
5845 5842 5839 5836 5833 5829 5825 5821 5817 5813 5808 5804 5799 5795 5790 5786 5781 5776 5772 5767 5762 5757 5753 5749 5745 5741 5737 5734 5732 5730 5728 5728 5727 5727 5728 5729 5730 5732 5734 5736 5739 5742 5746
5843 5841 5838 5835 5831 5828 5824 5820 5816 5812 5808 5804 5800 5796 5791 5787 5782 5778 5773 5769 5764 5760 5755 5751 5746 5742 5738 5735 5732 5730 5729 5728 5727 5727 5727 5727 5728 5729 5731 5732 5735 5737 5740
5841 5839 5836 5833 5830 5826 5823 5819 5816 5812 5808 5804 5800 5796 5792 5787 5783 5779 5775 5770 5766 5762 5757 5753 5749 5745 5740 5736 5734 5732 5730 5729 5728 5727 5726 5726 5726 5727 5728 5729 5731 5733 5735
5839 5836 5834 5831 5828 5824 5821 5818 5814 5811 5807 5803 5799 5795 5791 5787 5784 5780 5776 5771 5767 5763 5759 5755 5751 5747 5743 5739 5736 5734 5732 5730 5728 5727 5726 5725 5725 5725 5725 5726 5727 5729 5731
5835 5833 5831 5828 5825 5822 5819 5816 5812 5809 5805 5802 5798 5795 5791 5787 5783 5780 5776 5772 5768 5764 5760 5756 5752 5749 5745 5742 5738 5735 5733 5731 5729 5727 5726 5725 5724 5724 5724 5724 5725 5726 5728
5832 5829 5827 5825 5822 5819 5816 5813 5810 5807 5803 5800 5797 5793 5790 5786 5783 5779 5775 5772 5768 5765 5761 5757 5754 5750 5747 5743 5740 5737 5734 5732 5730 5728 5726 5725 5724 5723 5722 5723 5723 5724 5725
5827 5825 5823 5821 5818 5815 5813 5810 5807 5804 5801 5797 5794 5791 5788 5784 5781 5778 5774 5771 5768 5764 5761 5758 5754 5751 5747 5744 5741 5738 5735 5733 5730 5728 5726 5725 5723 5722 5721 5721 5722 5722 5723
5823 5821 5818 5816 5814 5811 5808 5806 5803 5800 5797 5794 5791 5788 5785 5782 5779 5776 5772 5769 5766 5763 5760 5757 5754 5750 5747 5744 5742 5739 5736 5733 5731 5729 5727 5725 5723 5722 5721 5720 5720 5721 5721
5817 5815 5813 5811 5809 5806 5804 5801 5798 5795 5792 5789 5786 5784 5781 5778 5775 5772 5769 5766 5763 5760 5758 5755 5752 5749 5746 5744 5741 5738 5736 5733 5731 5729 5727 5725 5723 5722 5720 5720 5719 5719 5719
5811 5809 5807 5805 5803 5800 5798 5795 5792 5789 5787 5784 5781 5778 5776 5773 5770 5768 5765 5762 5760 5757 5754 5752 5749 5746 5744 5741 5739 5737 5734 5732 5730 5728 5726 5724 5722 5721 5719 5719 5718 5718 5718